Superior, WI

7:41 PM CDT on August 17, 2017 (GMT -0500)
Bong

Weather History for KSUW - May, 2013

Change the Weather History Date:

Wednesday, May 15, 2013

  Actual Average Record
Temperature  
Mean Temperature 66 °F -  
Max Temperature 81 °F 55 °F 84 °F (1955)
Min Temperature 51 °F 38 °F 23 °F (1967)
Cooling Degree Days 1    
Growing Degree Days 16 (Base 50)    
Moisture  
Dew Point 41 °F    
Average Humidity 45    
Maximum Humidity 72    
Minimum Humidity 19    
Precipitation  
Precipitation 0.00 in - - ()
Sea Level Pressure  
Sea Level Pressure 29.77 in    
Wind  
Wind Speed 13 mph (WNW)    
Max Wind Speed 21 mph    
Max Gust Speed 28 mph    
Visibility 10 miles    
Events      
Averages and records for this station are not official NWS values.
T = Trace of Precipitation, MM = Missing Value Source: NWS Daily Summary

Daily Weather History Graph

Daily Weather History Graph

Search for Another Location

Airport or City:

Trip Planner

Search our weather history database for the weather conditions in past years. The results will help you decide how hot, cold, wet, or windy it might be!

Date:

Astronomy

May. 15, 2013 Rise Set
Actual Time 5:33 AM CDT 8:36 PM CDT
Civil Twilight 4:57 AM CDT 9:12 PM CDT
Nautical Twilight 4:11 AM CDT 9:58 PM CDT
Astronomical Twilight 3:16 AM CDT 10:55 PM CDT
Moon 10:13 AM CDT (5/15) 12:20 AM CDT (5/15)
Length of Visible Light 16h 14m
Length of Day
15h 02m
Waxing Crescent, 27% of the Moon is Illuminated
May 15
Waxing Crescent
May 17
First Quarter
May 24
Full
May 31
Last Quarter
Jun 8
New

Hourly Weather History & Observations

Time (CDT) Temp. Dew Point Humidity Pressure Visibility Wind Dir Wind Speed Gust Speed Precip Events Conditions
12:15 AM 62.8 °F 46.4 °F 55% 29.59 in 10.0 mi WNW 18.4 mph 27.6 mph N/A   Clear
12:35 AM 62.2 °F 46.8 °F 57% 29.61 in 10.0 mi WNW 16.1 mph 26.5 mph N/A   Clear
12:55 AM 60.8 °F 47.3 °F 61% 29.62 in 10.0 mi WNW 17.3 mph 20.7 mph N/A   Clear
1:15 AM 60.1 °F 47.3 °F 63% 29.64 in 10.0 mi NW 15.0 mph 25.3 mph N/A   Clear
1:35 AM 58.8 °F 46.6 °F 64% 29.66 in 10.0 mi NW 19.6 mph 25.3 mph N/A   Clear
1:55 AM 57.9 °F 46.0 °F 65% 29.68 in 10.0 mi NW 13.8 mph 19.6 mph N/A   Clear
2:15 AM 57.0 °F 45.5 °F 65% 29.69 in 10.0 mi NW 12.7 mph 18.4 mph N/A   Clear
2:35 AM 55.2 °F 44.4 °F 67% 29.70 in 10.0 mi NW 9.2 mph - N/A   Clear
2:55 AM 55.4 °F 44.1 °F 66% 29.71 in 10.0 mi NW 12.7 mph - N/A   Clear
3:15 AM 55.4 °F 43.9 °F 65% 29.72 in 10.0 mi WNW 11.5 mph - N/A   Clear
3:35 AM 54.0 °F 43.5 °F 68% 29.74 in 10.0 mi WNW 10.4 mph - N/A   Clear
3:55 AM 55.4 °F 43.9 °F 65% 29.74 in 10.0 mi WNW 10.4 mph 21.9 mph N/A   Clear
4:15 AM 54.0 °F 43.3 °F 67% 29.74 in 10.0 mi WNW 9.2 mph - N/A   Clear
4:35 AM 52.9 °F 43.3 °F 70% 29.75 in 10.0 mi West 8.1 mph - N/A   Clear
4:55 AM 52.2 °F 43.3 °F 72% 29.75 in 10.0 mi WNW 11.5 mph - N/A   Clear
5:15 AM 52.3 °F 43.2 °F 71% 29.76 in 10.0 mi West 9.2 mph - N/A   Clear
5:35 AM 52.5 °F 43.0 °F 70% 29.76 in 10.0 mi WNW 8.1 mph - N/A   Clear
5:55 AM 53.2 °F 43.0 °F 68% 29.77 in 10.0 mi WNW 11.5 mph 16.1 mph N/A   Clear
6:15 AM 54.3 °F 43.0 °F 66% 29.77 in 10.0 mi WNW 8.1 mph 18.4 mph N/A   Clear
6:35 AM 55.4 °F 43.2 °F 63% 29.78 in 10.0 mi WNW 12.7 mph 20.7 mph N/A   Clear
6:55 AM 55.4 °F 43.7 °F 65% 29.79 in 10.0 mi West 9.2 mph - N/A   Clear
7:15 AM 56.3 °F 43.9 °F 63% 29.80 in 10.0 mi West 10.4 mph 17.3 mph N/A   Clear
7:35 AM 56.5 °F 44.1 °F 63% 29.82 in 10.0 mi West 10.4 mph - N/A   Clear
7:55 AM 57.7 °F 44.6 °F 62% 29.84 in 10.0 mi West 11.5 mph - N/A   Clear
8:15 AM 59.2 °F 44.8 °F 59% 29.84 in 10.0 mi West 10.4 mph - N/A   Clear
8:35 AM 61.3 °F 45.0 °F 55% 29.83 in 10.0 mi West 10.4 mph - N/A   Clear
8:55 AM 63.7 °F 45.0 °F 51% 29.84 in 10.0 mi WSW 11.5 mph 17.3 mph N/A   Clear
9:15 AM 64.6 °F 45.0 °F 49% 29.84 in 10.0 mi West 10.4 mph - N/A   Clear
9:35 AM 66.9 °F 44.6 °F 45% 29.84 in 10.0 mi WNW 12.7 mph - N/A   Clear
10:15 AM 69.3 °F 43.2 °F 39% 29.83 in 10.0 mi NW 10.4 mph 16.1 mph N/A   Clear
10:35 AM 70.9 °F 41.9 °F 35% 29.82 in 10.0 mi West 8.1 mph - N/A   Clear
10:55 AM 72.3 °F 41.4 °F 33% 29.82 in 10.0 mi WNW 17.3 mph 21.9 mph N/A   Clear
11:15 AM 73.8 °F 41.9 °F 32% 29.82 in 10.0 mi NW 13.8 mph 19.6 mph N/A   Clear
11:35 AM 74.1 °F 42.4 °F 32% 29.81 in 10.0 mi West 13.8 mph 21.9 mph N/A   Scattered Clouds
11:55 AM 75.0 °F 42.6 °F 31% 29.81 in 10.0 mi NW 15.0 mph 20.7 mph N/A   Scattered Clouds
12:15 PM 75.9 °F 41.5 °F 29% 29.80 in 10.0 mi West 17.3 mph 24.2 mph N/A   Scattered Clouds
12:35 PM 75.7 °F 41.4 °F 29% 29.80 in 10.0 mi West 19.6 mph 25.3 mph N/A   Scattered Clouds
12:55 PM 74.1 °F 40.6 °F 30% 29.79 in 10.0 mi NW 16.1 mph 27.6 mph N/A   Mostly Cloudy
1:15 PM 75.4 °F 39.0 °F 27% 29.79 in 10.0 mi NW 16.1 mph 20.7 mph N/A   Mostly Cloudy
1:35 PM 77.5 °F 38.1 °F 24% 29.78 in 10.0 mi West 17.3 mph 23.0 mph N/A   Scattered Clouds
1:55 PM 77.7 °F 37.8 °F 24% 29.78 in 10.0 mi WNW 17.3 mph 24.2 mph N/A   Scattered Clouds
2:15 PM 79.2 °F 35.8 °F 21% 29.77 in 10.0 mi WNW 16.1 mph 27.6 mph N/A   Mostly Cloudy
2:35 PM 79.9 °F 35.4 °F 20% 29.77 in 10.0 mi WNW 15.0 mph 21.9 mph N/A   Scattered Clouds
2:55 PM 79.5 °F 35.6 °F 21% 29.77 in 10.0 mi NW 17.3 mph 24.2 mph N/A   Scattered Clouds
3:15 PM 79.0 °F 36.7 °F 22% 29.76 in 10.0 mi NW 16.1 mph 20.7 mph N/A   Mostly Cloudy
3:35 PM 80.6 °F 34.9 °F 19% 29.75 in 10.0 mi West 12.7 mph 27.6 mph N/A   Mostly Cloudy
3:55 PM 79.2 °F 34.7 °F 20% 29.76 in 10.0 mi WNW 17.3 mph 25.3 mph N/A   Mostly Cloudy
4:15 PM 80.1 °F 34.9 °F 20% 29.75 in 10.0 mi NW 19.6 mph 23.0 mph N/A   Mostly Cloudy
4:35 PM 79.3 °F 34.0 °F 19% 29.75 in 10.0 mi NW 20.7 mph 26.5 mph N/A   Mostly Cloudy
4:55 PM 80.2 °F 35.1 °F 20% 29.75 in 10.0 mi NW 13.8 mph 20.7 mph N/A   Scattered Clouds
5:15 PM 80.4 °F 34.3 °F 19% 29.75 in 10.0 mi NW 12.7 mph 24.2 mph N/A   Mostly Cloudy
5:35 PM 79.9 °F 33.8 °F 19% 29.75 in 10.0 mi WNW 19.6 mph 24.2 mph N/A   Mostly Cloudy
5:55 PM 79.0 °F 34.9 °F 20% 29.75 in 10.0 mi NW 15.0 mph 18.4 mph N/A   Mostly Cloudy
6:15 PM 76.3 °F 34.9 °F 22% 29.75 in 10.0 mi NW 9.2 mph - N/A   Scattered Clouds
6:35 PM 74.1 °F 35.1 °F 24% 29.75 in 10.0 mi NNW 12.7 mph - N/A   Scattered Clouds
6:55 PM 74.8 °F 34.5 °F 23% 29.76 in 10.0 mi North 8.1 mph - N/A   Mostly Cloudy
7:15 PM 75.0 °F 35.4 °F 24% 29.76 in 10.0 mi North 10.4 mph 16.1 mph N/A   Mostly Cloudy
7:35 PM 73.4 °F 35.2 °F 25% 29.77 in 10.0 mi North 11.5 mph 18.4 mph N/A   Mostly Cloudy
7:55 PM 72.1 °F 35.6 °F 26% 29.77 in 10.0 mi NNE 5.8 mph - N/A   Scattered Clouds
8:15 PM 68.5 °F 39.2 °F 34% 29.78 in 10.0 mi NE 5.8 mph - N/A   Scattered Clouds
8:35 PM 63.0 °F 39.4 °F 42% 29.78 in 10.0 mi East 5.8 mph - N/A   Scattered Clouds
8:55 PM 61.5 °F 37.9 °F 42% 29.79 in 10.0 mi ESE 3.5 mph - N/A   Mostly Cloudy
9:15 PM 60.1 °F 38.3 °F 44% 29.79 in 10.0 mi SSE 3.5 mph - N/A   Scattered Clouds
9:35 PM 57.9 °F 38.3 °F 48% 29.79 in 10.0 mi South 4.6 mph - N/A   Mostly Cloudy
9:55 PM 58.3 °F 38.5 °F 48% 29.79 in 10.0 mi SSE 3.5 mph - N/A   Scattered Clouds
10:15 PM 58.1 °F 39.4 °F 50% 29.80 in 10.0 mi Calm Calm - N/A   Mostly Cloudy
10:35 PM 56.5 °F 40.3 °F 55% 29.80 in 10.0 mi Calm Calm - N/A   Mostly Cloudy
10:55 PM 57.4 °F 41.5 °F 56% 29.80 in 10.0 mi Calm Calm - N/A   Scattered Clouds
11:15 PM 54.9 °F 39.7 °F 57% 29.81 in 10.0 mi Calm Calm - N/A   Clear
11:35 PM 52.2 °F 40.1 °F 64% 29.81 in 10.0 mi Calm Calm - N/A   Scattered Clouds
11:55 PM 51.8 °F 42.3 °F 70% 29.82 in 10.0 mi Calm Calm - N/A   Mostly Cloudy